Regional Weather Roundup
Issued by NWS Jackson, KY

Home | Current Version | Previous Version | Graphics & Text | Print | Product List | Glossary On
Versions: 1 2 3 4 5 6 7 8 9 10 11 12 13 14 15 16 17 18 19 20 21 22 23 24 25 26 27 28 29 30 31 32 33 34 35 36 37 38 39 40 41 42 43 44 45 46 47 48 49 50
000
ASUS43 KJKL 292210
RWRJKL

EAST KENTUCKY HOURLY WEATHER ROUNDUP
NATIONAL WEATHER SERVICE JACKSON KY
600 PM EDT MON JUN 29 2015

NOTE: "FAIR" INDICATES FEW OR NO CLOUDS BELOW 12,000 FEET WITH
NO SIGNIFICANT WEATHER AND/OR OBSTRUCTIONS TO VISIBILITY.

* THESE REPORTS ARE NOT UNDER NWS QUALITY CONTROL AND MAY NOT
  REPORT WEATHER SUCH AS PRECIPITATION AND FOG.

KYZ079-080-083-085-087-088-110-112-115-119-120-292300
...EASTERN KENTUCKY...

CITY           SKY/WX    TMP DP  RH WIND       PRES   REMARKS
JACKSON        PTSUNNY   74  64  71 MISG      29.88R
LONDON         TSTM      73  66  78 NW9       29.87S
SOMERSET*      LGT RAIN  66  63  88 CALM      29.88F
MONTICELLO*    PTSUNNY   78  69  73 SW7       29.88R
MIDDLESBORO*   PTSUNNY   81  65  57 S9        29.89R
HARLAN APT*      N/A     81  59  47 CALM      29.90S
HAZARD APT*    MOCLDY    73  66  78 S7        29.88S
BLACK MTN*       N/A     66  61  82 SW6         N/A
PIKEVILLE APT* CLOUDY    75  63  64 S8        29.89R
BIG SANDY*     MOCLDY    79  63  58 S7        29.87R
MOREHEAD APT*  CLOUDY    72  63  73 S8        29.85S
$$

KYZ035-036-041-042-044-050-067-078-099-292300
...CENTRAL KENTUCKY...

CITY           SKY/WX    TMP DP  RH WIND       PRES   REMARKS
MT STERLING*   RAIN      68  66  94 W5G23     29.84S
FLEMING/MASON* SUNNY    N/A N/A N/A S5        29.83S
DANVILLE*      RAIN      77  68  73 W13       29.87R
RICHMOND*      PTSUNNY   77  64  65 W8        29.86R
LEXINGTON      CLOUDY    71  66  84 S8        29.83S
FRANKFORT      MOSUNNY   76  67  73 SE8       29.80S
$$

KYZ091>093-OHZ055-061-077-WVZ005-015-034-035-042-292300
...SOUTHERN OHIO/WEST VIRGINIA...

CITY           SKY/WX    TMP DP  RH WIND       PRES   REMARKS
COVINGTON      PTSUNNY   75  65  70 NW12      29.79R
COLUMBUS       CLOUDY    65  63  93 SE8       29.81F
DAYTON         CLOUDY    70  66  87 NW6       29.81S
WILMINGTON     TSTM      71  67  87 CALM      29.79S FOG
HUNTINGTON     PTSUNNY   76  64  66 S7        29.79F
CHARLESTON     MOSUNNY   80  59  48 S12       29.82F
PINEVILLE*     MOSUNNY   77  61  58 MISG      29.96F
BECKLEY        MOSUNNY   76  55  48 SW12G20   29.95F
BLUEFIELD      PTSUNNY   74  53  48 S10G23    29.99F
$$

VAZ002-007-008-TNZ017-027-036-066-071-292300
...SOUTHWEST VIRGINIA/EAST TENNESSEE...

CITY           SKY/WX    TMP DP  RH WIND       PRES   REMARKS
WISE*          PTSUNNY   73  59  60 S14G21    29.98S
JONESVILLE*      N/A    N/A N/A N/A MISG        N/A
ABINGDON*      MOSUNNY   77  61  57 SW9       29.96F
BRISTOL        PTSUNNY   81  60  48 S12       29.93F
KNOXVILLE      PTSUNNY   82  63  52 SW17      29.90F
OAK RIDGE      MOSUNNY   85  64  49 VRB6      29.91S
CROSSVILLE     PTSUNNY   78  64  61 SW7G20    29.95F
NASHVILLE      PTSUNNY   85  69  58 SW13G20   29.86F
$$

...KEY TO REMARKS...
VSB - VISIBILITY IN MILES
WCI - WIND CHILL INDEX
HX  - HEAT INDEX

$$



USA.gov is the U.S. government's official web portal to all federal, state and local government web resources and services.